Flag for Turkey Weather past 2 weeks in Gaziantep, Turkey

Now
41 °F

Light rain. Partly cloudy.


Feels Like: 34 °F
Forecast: 28 / 46 °F
Wind: 12 mph from North

Location: Gaziantep Airport

Current Time: Dec 22, 2014 at 6:39:20 PM

Latest Report: Dec 22, 2014 at 5:50 PM


Visibility: N/A

Pressure: 29.98 "Hg

Humidity: 81%

Dew point: 36 °F

Location of GaziantepLocation

Historic Weather in Gaziantep — Graph

°F

Gaziantep temperature yesterday

Maximum temperature yesterday: 55 °F (at 10:20 AM)
Minimum temperature yesterday: 34 °F (at 1:50 AM)
Average temperature yesterday: 43 °F

Past Weeks' High & Low Weather Summary

 TemperatureHumidityPressure
High59 °F (Dec 15, 1:50 PM)100% (Dec 9, 10:20 PM)30.33 "Hg (Dec 9, 10:20 PM)
Low32 °F (Dec 17, 5:20 AM)36% (Dec 16, 1:20 PM)29.95 "Hg (Dec 22, 12:50 PM)
Average48 °F83%30.15 "Hg
* Reported Dec 7 5:20 PM — Dec 22 5:20 PM, Gaziantep, Weather by CustomWeather, © 2014

Note: Actual official high and low records may vary slightly from our data, if they occured in-between our weather recording intervals... More about our weather records

Advertising

Gaziantep weather history for previous 24 hours

 ConditionsComfort  
Time TempWeatherWind HumidityBarometerVisibility
5:20 PM
Dec 22
43 °FLight rain. Partly cloudy.13 mph76%29.98 "HgN/A
4:50 PM43 °FLight rain. Mostly cloudy.16 mph81%29.98 "HgN/A
4:20 PM45 °FLight rain. Overcast.6 mph87%29.95 "Hg4 mi
3:50 PM45 °FLight rain. Cloudy.7 mph87%29.95 "Hg4 mi
3:20 PM45 °FLight rain. Cloudy.1 mph93%29.95 "Hg4 mi
2:50 PM45 °FLight rain. Fog.No wind93%29.95 "Hg2 mi
2:20 PM45 °FLight rain. Fog.No wind93%29.95 "Hg2 mi
1:50 PM45 °FLight rain. Cloudy.5 mph93%29.95 "Hg4 mi
1:20 PM45 °FLight rain. Cloudy.3 mph93%29.95 "Hg4 mi
12:50 PM45 °FLight rain. Cloudy.6 mph93%29.95 "Hg4 mi
12:20 PM45 °FFog.6 mph93%29.98 "Hg2 mi
11:50 AM45 °FFog.No wind93%29.98 "Hg2 mi
11:20 AM45 °FFog.2 mph93%29.98 "Hg2 mi
10:50 AM45 °FFog.No wind93%30.01 "Hg2 mi
10:20 AM45 °FFog.No wind93%30.01 "Hg2 mi
9:50 AM43 °FFog.No wind93%30.01 "Hg2 mi
9:20 AM43 °FFog.2 mph93%30.01 "Hg2 mi
8:50 AM43 °FFog.3 mph93%30.01 "Hg1 mi
7:50 AM43 °FLight rain. Fog.No wind93%30.01 "Hg1 mi
7:20 AM43 °FLight rain. Fog.No wind93%30.01 "Hg2 mi
6:50 AM43 °FLight rain. Fog.No wind93%30.01 "Hg2 mi
6:20 AM41 °FLight rain. Fog.No wind100%30.01 "Hg2 mi
5:50 AM41 °FLight rain. Fog.No wind93%30.01 "Hg2 mi
5:20 AM41 °FLight rain. Fog.1 mph93%30.01 "Hg2 mi
4:50 AM41 °FLight rain. Fog.No wind93%30.01 "Hg2 mi
4:20 AM41 °FLight rain. Fog.No wind87%30.01 "Hg2 mi
3:50 AM41 °FLight rain. Fog.1 mph87%30.01 "Hg2 mi
3:20 AM39 °FLight rain. Fog.2 mph93%30.01 "Hg2 mi
2:50 AM39 °FLight rain. Fog.No wind93%30.04 "Hg2 mi
2:20 AM39 °FLight rain. Fog.No wind93%30.04 "Hg3 mi
1:50 AM39 °FLight rain. Fog.No wind87%30.04 "Hg3 mi
1:20 AM37 °FLight rain. Partly cloudy.No wind93%30.07 "Hg4 mi
12:50 AM37 °FPartly cloudy.No wind87%30.07 "Hg4 mi
12:20 AM36 °FPartly cloudy.No wind93%30.07 "HgN/A
11:20 PM
Dec 21
37 °FPassing clouds.3 mph87%30.07 "HgN/A
10:50 PM36 °FClear.1 mph93%30.07 "Hg10 mi
10:20 PM37 °FClear.1 mph87%30.07 "Hg10 mi
9:50 PM37 °FClear.No wind87%30.09 "Hg10 mi
9:20 PM37 °FClear.No wind87%30.07 "Hg10 mi
8:50 PM37 °FClear.No wind87%30.07 "Hg10 mi
8:20 PM39 °FClear.No wind87%30.07 "Hg10 mi
7:50 PM39 °FClear.No wind87%30.07 "Hg10 mi
7:20 PM41 °FClear.No wind81%30.07 "Hg10 mi
6:50 PM43 °FClear.No wind76%30.07 "Hg10 mi
6:20 PM43 °FClear.1 mph81%30.07 "Hg10 mi
Weather by CustomWeather, © 2014

See weather overviewHow to use our weather pages